Flag for Tajikistan Weather past 2 weeks in Dushanbe, Tajikistan

Now
54 °F

Clear.


Feels Like: 53 °F
Forecast: 50 / 78 °F
Wind: 3 mph from North

Location: Dushanbe Airport

Current Time: Apr 22, 2015 at 2:16:07 AM

Latest Report: Apr 22, 2015 at 1:30 AM


Visibility: N/A

Pressure: 30.07 "Hg

Humidity: 63%

Dew point: 41 °F

Location of DushanbeLocation

Historic Weather in Dushanbe — Graph

°F

Dushanbe temperature yesterday

Maximum temperature yesterday: 79 °F (at 5:00 PM)
Minimum temperature yesterday: 46 °F (at 5:30 AM)
Average temperature yesterday: 63 °F

Past Weeks' High & Low Weather Summary

 TemperatureHumidityPressure
High84 °F (Apr 13, 1:30 PM)100% (Apr 7, 2:00 AM)30.30 "Hg (Apr 7, 2:00 AM)
Low43 °F (Apr 9, 5:30 AM)15% (Apr 11, 1:30 PM)29.80 "Hg (Apr 19, 12:00 PM)
Average62 °F57%30.07 "Hg
* Reported Apr 7 1:00 AM — Apr 22 1:00 AM, Dushanbe, Weather by CustomWeather, © 2015

Note: Actual official high and low records may vary slightly from our data, if they occured in-between our weather recording intervals... More about our weather records

Advertising

Dushanbe weather history for previous 24 hours

 ConditionsComfort  
Time TempWeatherWind HumidityBarometerVisibility
1:00 AM
Wed, Apr 22
54 °FClear.1 mph67%30.09 "HgN/A
12:30 AM57 °FClear.1 mph59%30.09 "HgN/A
12:00 AM61 °FClear.3 mph39%30.09 "HgN/A
11:30 PM
Tue, Apr 21
57 °FClear.1 mph55%30.09 "HgN/A
11:00 PM59 °FClear.6 mph55%30.09 "HgN/A
10:30 PM59 °FClear.6 mph55%30.09 "HgN/A
10:00 PM61 °FClear.3 mph55%30.09 "HgN/A
9:30 PM61 °FClear.3 mph55%30.09 "HgN/A
9:00 PM64 °FClear.1 mph49%30.07 "HgN/A
8:30 PM64 °FClear.6 mph49%30.07 "HgN/A
8:00 PM68 °FClear.3 mph43%30.07 "HgN/A
7:30 PM66 °FClear.8 mph49%30.04 "HgN/A
7:00 PM70 °FClear.3 mph40%30.04 "HgN/A
6:30 PM73 °FClear.3 mph33%30.04 "HgN/A
6:00 PM75 °FClear.3 mph27%30.04 "HgN/A
5:30 PM77 °FClear.1 mph24%30.04 "HgN/A
5:00 PM79 °FClear.3 mph26%30.07 "HgN/A
4:30 PM77 °FClear.1 mph26%30.07 "HgN/A
4:00 PM77 °FClear.3 mph24%30.07 "HgN/A
3:30 PM77 °FClear.6 mph24%30.07 "HgN/A
3:00 PM77 °FClear.6 mph34%30.07 "HgN/A
2:30 PM77 °FClear.8 mph28%30.07 "HgN/A
2:00 PM77 °FClear.8 mph22%30.09 "HgN/A
1:30 PM77 °FClear.6 mph26%30.09 "HgN/A
1:00 PM75 °FClear.6 mph31%30.09 "HgN/A
12:30 PM75 °FClear.6 mph29%30.09 "HgN/A
12:00 PM73 °FClear.6 mph31%30.12 "HgN/A
11:30 AM72 °FClear.3 mph33%30.12 "HgN/A
11:00 AM72 °FClear.6 mph36%30.12 "HgN/A
10:30 AM70 °FClear.6 mph35%30.15 "HgN/A
10:00 AM70 °FClear.6 mph40%30.15 "HgN/A
9:30 AM66 °FClear.6 mph40%30.15 "HgN/A
9:00 AM64 °FClear.3 mph49%30.15 "HgN/A
8:30 AM63 °FClear.6 mph52%30.15 "HgN/A
8:00 AM59 °FClear.3 mph68%30.15 "HgN/A
7:30 AM57 °FClear.3 mph67%30.15 "HgN/A
7:00 AM52 °FClear.3 mph82%30.15 "HgN/A
6:30 AM50 °FClear.3 mph82%30.15 "HgN/A
6:00 AM46 °FClear.1 mph87%30.15 "HgN/A
5:30 AM46 °FClear.No wind93%30.15 "HgN/A
5:00 AM48 °FClear.1 mph87%30.15 "HgN/A
4:30 AM48 °FClear.3 mph87%30.15 "HgN/A
4:00 AM48 °FClear.1 mph87%30.15 "HgN/A
3:30 AM50 °FClear.3 mph82%30.15 "HgN/A
3:00 AM48 °FClear.3 mph87%30.15 "HgN/A
2:00 AM48 °FClear.1 mph94%30.15 "HgN/A
Weather by CustomWeather, © 2015

See weather overviewHow to use our weather pages